Вернуться в каталог

STARLINK-31020

АктивенСвязьVLEO
NORAD 58509·PAYLOAD·🇺🇸 United States

Запущен Dec 7, 2023 с Cape Canaveral Space Force Station

Loading…

Ближайшие Пролёты (ближайшие 24 часа)

TLE

СвежийSource: CelesTrak SupGP

Эпоха: Sep 14, 2026, 21:04 UTC

1 58509C 23191B   26257.87826389 -.00009064  00000+0 -32834-3 0  2576
2 58509  43.0011 121.8493 0001278 262.7345 141.5440 15.27577405    16

Отслеживайте STARLINK-31020 в реальном времени с AllMySat

Download on the App Store